Home   Weather   Kansas City   Past weeks

Flag for USA Past Weather in Kansas City, Missouri, USA — Yesterday and Last 2 Weeks

Now
58 °F

Overcast.


Feels Like: 58 °F
Forecast: 53 / 68 °F
Wind: 5 mph from North

Location: Kansas City Downtown Airport

Current Time: Apr 28, 2017 at 11:21:40 am

Latest Report: Apr 28, 2017 at 10:54 am


Visibility: 10 mi

Pressure: 29.66 "Hg

Humidity: 87%

Dew Point: 54 °F

Location of Kansas CityLocation

Past Weather in Kansas City — Graph

°F

Kansas City Temperature Yesterday

Maximum temperature yesterday: 62 °F (at 3:54 pm)
Minimum temperature yesterday: 43 °F (at 6:54 am)
Average temperature yesterday: 52 °F

High & Low Weather Summary for the Past Weeks

 TemperatureHumidityPressure
High82 °F (Apr 15, 4:54 pm)97% (Apr 16, 5:54 am)30.19 "Hg (Apr 16, 5:54 am)
Low41 °F (Apr 23, 6:54 am)19% (Apr 23, 2:54 pm)29.37 "Hg (Apr 25, 3:54 pm)
Average63 °F61%29.90 "Hg
* Reported Apr 13 10:54 am — Apr 28 9:54 am, Kansas City, Weather by CustomWeather, © 2017

Note: Actual official high and low records may vary slightly from our data, if they occured in-between our weather recording intervals... More about our weather records

Advertising

Kansas City Weather History for the Previous 24 Hours

Scroll right to see more
 ConditionsComfort  
Time TempWeatherWind HumidityBarometerVisibility
9:54 am
Fri, Apr 28
55 °FMostly cloudy.8 mph93%29.66 "Hg10 mi
9:30 am55 °FMostly cloudy.8 mph90%29.65 "Hg10 mi
9:01 am54 °FMostly cloudy.8 mph93%29.66 "Hg10 mi
8:05 am53 °FMore clouds than sun.12 mph93%29.66 "Hg10 mi
7:35 am52 °FMostly cloudy.8 mph97%29.66 "Hg10 mi
7:16 am52 °FRain. Fog.10 mph93%29.65 "Hg5 mi
6:54 am52 °FLight rain. Fog.10 mph93%29.66 "Hg6 mi
5:54 am52 °FRain. Fog.7 mph93%29.67 "Hg5 mi
4:54 am53 °FMostly cloudy.10 mph86%29.68 "Hg10 mi
3:54 am52 °FLight rain. Overcast.8 mph89%29.69 "Hg8 mi
2:54 am51 °FLight rain. Fog.10 mph92%29.70 "Hg6 mi
1:54 am52 °FLight rain. Overcast.10 mph86%29.74 "Hg7 mi
12:54 am53 °FOvercast.8 mph80%29.75 "Hg10 mi
11:54 pm
Thu, Apr 27
53 °FOvercast.8 mph80%29.75 "Hg10 mi
10:54 pm53 °FOvercast.6 mph80%29.75 "Hg10 mi
9:54 pm54 °FPassing clouds.6 mph80%29.74 "Hg10 mi
8:54 pm55 °FLight rain. Overcast.No wind74%29.76 "Hg10 mi
7:54 pm57 °FLight rain. Overcast.6 mph62%29.77 "Hg10 mi
6:54 pm60 °FPartly sunny.5 mph44%29.73 "Hg10 mi
5:54 pm61 °FMostly cloudy.7 mph42%29.72 "Hg10 mi
4:54 pm62 °FScattered clouds.3 mph41%29.71 "Hg10 mi
3:54 pm62 °FPassing clouds.7 mph41%29.70 "Hg10 mi
2:54 pm61 °FSunny.No wind42%29.71 "Hg10 mi
1:54 pm59 °FSunny.6 mph46%29.72 "Hg10 mi
12:54 pm58 °FSunny.10 mph50%29.75 "Hg10 mi
11:54 am56 °FSunny.16 mph49%29.78 "Hg10 mi
Weather by CustomWeather, © 2017

See weather overviewHow to use our weather pages